Probability
0 0 0 0 0 0 0 0 0 0 0 0 0 0 0 0 0 0 0 0 0 0 0 0 0 0 0 0 0 0 0 0 0 0 0 0 0 0 0 0 0 0 0
0 0 0 0 0 0 0 0 0 0 0 0 0 0 0 0 0 0 0 0 0 0 0 0 0 0 0 0 0 0 0 0 0 0 0 0 0 0 0 0 0 0 0
0 0 0 0 0 0 0 0 0 0 0 0 0 0 0 0 0 0 0 0 0 0 0 0 0 0 0 0 0 0 0 0 0 0 0 0 0 0 0 0 0 0 0
0 0 0 0 0 0 0 0 0 0 0 0 0 0 0 0 0 0 0 0 0 0 0 0 0 0 0 0 0 0 0 0 0 0 0 0 0 0 0 0 0 0 0
0 0 0 0 0 0 0 0 0 0 0 0 0 0 0 0 0 0 0 0 0 0 0 0 0 0 0 0 0 0 0 0 0 0 0 0 0 0 0 0 0 0 0
0 0 0 0 0 0 0 0 0 0 0 0 0 0 0 0 0 0 0 0 0 0 0 0 0 0 0 0 0 0 0 0 0 0 0 0 0 0 0 0 0 0 0
0 0 0 0 0 0 0 0 0 0 0 0 0 0 0 0 0 0 0 0 0 0 0 0 0 0 0 0 0 0 0 0 0 0 0 0 0 0 0 0 0 0 0
0 0 0 0 0 0 0 0 0 0 0 0 0 0 0 0 0 0 0 0 0 0 0 0 0 0 0 0 0 0 0 0 0 0 0 0 0 0 0 0 0 0 0
0 0 0 0 0 0 0 0 0 0 0 0 0 0 0 0 0 0 0 0 0 0 0 0 0 0 0 0 0 0 0 0 0 0 0 0 0 0 0 0 0 0 0
0 0 0 0 0 0 0 0 0 0 0 0 0 0 0 0 0 0 0 0 0 0 0 0 0 0 0 0 0 0 0 0 0 0 0 0 0 0 0 0 0 0 0
0 0 0 0 0 0 0 0 0 0 0 0 0 0 0 0 0 0 0 0 0 0 0 0 0 0 0 0 0 0 0 0 0 0 0 0 0 0 0 0 0 0 0
0 0 0 0 0 0 0 0 0 0 0 0 0 0 0 0 0 0 0 0 0 0 0 0 0 0 0 0 0 0 0 0 0 0 0 0 0 0 0 0 0 0 0
0 0 0 0 0 0 0 0 0 0 0 0 0 0 0 0 0 0 0 0 0 0 0 0 0 0 0 0 0 0 0 0 0 0 0 0 0 0 0 0 0 0 0
0 0 0 0 0 0 0 0 0 0 0 0 0 0 0 0 0 0 0 0 0 0 0 0 0 0 0 0 0 0 0 0 0 0 0 0 0 0 0 0 0 0 0
0 0 0 0 0 0 0 0 0 0 0 0 0 0 0 0 0 0 0 0 0 0 0 0 0 0 0 0 0 0 0 0 0 0 0 0 0 0 0 0 0 0 0
0 0 0 0 0 0 0 0 0 0 0 0 0 0 0 0 0 0 0 0 0 0 0 0 0 0 0 0 0 0 0 0 0 0 0 0 0 0 0 0 0 0 0
0 0 0 0 0 0 0 0 0 0 0 0 0 0 0 0 0 0 0 0 0 0 0 0 0 0 0 0 0 0 0 0 0 0 0 0 0 0 0 0 0 0 0
0 0 0 0 0 0 0 0 0 0 0 0 0 0 0 0 0 0 0 0 0 0 0 0 0 0 0 0 0 0 0 0 0 0 0 0 0 0 0 0 0 0 0
0 0 0 0 0 0 0 0 0 0 0 0 0 0 0 0 0 0 0 0 0 0 0 0 0 0 0 0 0 0 0 0 0 0 0 0 0 0 0 0 0 0 0
0 0 0 0 0 0 0 0 0 0 0 0 0 0 0 0 0 0 0 0 0 0 0 0 0 0 0 0 0 0 0 0 0 0 0 0 0 0 0 0 0 0 0
0 0 0 0 0 0 0 0 0 0 0 0 0 0 0 0 0 0 0 0 0 0 0 0 0 0 0 0 0 0 0 0 0 0 0 0 0 0 0 0 0 0 0
0 0 0 0 0 0 0 0 0 0 0 0 0 0 0 0 0 0 0 0 0 0 0 0 0 0 0 0 0 0 0 0 0 0 0 0 0 0 0 0 0 0 0
0 0 0 0 0 0 0 0 0 0 0 0 0 0 0 0 0 0 0 0 0 0 0 0 0 0 0 0 0 0 0 0 0 0 0 0 0 0 0 0 0 0 0
0 0 0 0 0 0 0 0 0 0 0 0 0 0 0 0 0 0 0 0 0 0 0 0 0 0 0 0 0 0 0 0 0 0 0 0 0 0 0 0 0 0 0
0 0 0 0 0 0 0 0 0 0 0 0 0 0 0 0 0 0 0 0 0 0 0 0 0 0 0 0 0 0 0 0 0 0 0 0 0 0 0 0 0 0 0
0 0 0 0 0 0 0 0 0 0 0 0 0 0 0 0 0 0 0 0 0 0 0 0 0 0 0 0 0 0 0 0 0 0 0 0 0 0 0 0 0 0 0
Wind_Speed
8 8 8 7 7 6 5 4 3 2 3 3 4 4 5 6 6 6 6 7 7 7 6 5 6 6 6 7 7 8 8 8 13 15 10 7 8 9 11 8 8 9 12
7 8 7 7 6 6 5 3 3 3 3 3 4 5 6 6 7 7 8 8 7 8 7 5 6 7 8 8 8 9 9 9 10 16 14 10 10 9 9 9 12 13 10
8 8 7 6 6 5 4 3 3 3 3 4 4 5 6 7 7 7 7 7 7 7 6 6 6 8 9 9 10 10 9 9 8 12 16 13 10 7 10 13 14 11 14
8 8 7 5 5 4 3 2 2 3 3 5 5 6 6 7 7 7 7 7 7 7 6 6 7 7 10 11 11 8 8 10 10 11 13 14 9 8 9 12 15 9 11
9 7 5 4 4 3 3 2 2 3 4 5 6 7 7 7 7 10 8 8 7 7 6 7 8 13 18 16 13 11 12 11 12 12 14 13 11 10 11 11 15 14 11
8 6 5 4 3 3 2 2 3 4 5 5 6 6 7 8 17 21 17 9 7 7 8 8 9 12 16 22 25 26 24 18 16 13 12 14 15 13 13 14 15 16 14
7 6 5 4 3 3 3 3 4 4 5 6 6 6 7 10 19 21 22 13 8 8 9 9 11 12 18 11 19 25 21 26 22 16 15 15 16 16 16 17 16 16 17
7 6 5 4 4 3 3 3 3 3 4 5 6 7 7 10 19 20 22 10 8 8 9 10 10 10 12 17 15 13 12 10 16 14 11 12 14 13 14 16 17 16 15
6 5 4 4 3 2 2 3 3 3 4 5 6 6 7 10 16 19 20 7 8 10 9 9 11 10 21 28 19 14 11 12 19 24 25 24 29 28 22 14 13 12 14
6 5 4 3 2 2 2 3 3 4 5 5 6 6 7 8 15 20 21 6 7 8 8 9 17 21 26 26 14 9 13 15 13 14 16 19 17 17 23 14 12 13 14
5 5 4 3 2 2 3 3 4 4 5 6 6 6 7 9 14 19 21 9 8 9 9 8 9 23 24 24 22 11 18 20 12 13 13 13 12 10 11 11 11 12 13
5 4 4 4 3 3 3 4 4 5 5 6 5 6 5 7 12 16 21 20 19 10 9 7 9 22 25 25 18 21 26 21 11 11 12 12 11 11 11 12 14 14 14
5 4 4 4 4 3 3 4 4 4 4 5 5 5 6 5 8 18 21 22 23 13 9 17 20 23 22 14 20 24 19 10 11 11 12 12 10 11 12 12 12 12 14
5 4 3 3 3 3 3 3 3 4 5 5 6 7 7 6 6 7 7 9 14 11 8 12 19 20 17 18 16 13 9 10 12 11 12 12 12 10 11 11 12 12 12
5 3 2 2 2 3 3 3 4 3 7 8 5 5 8 7 12 22 16 11 10 11 12 5 6 8 8 10 10 9 10 11 11 11 12 13 13 12 12 11 10 11 11
3 2 1 2 2 3 3 4 8 10 15 15 15 14 11 16 23 23 23 24 24 23 14 8 8 8 9 11 12 12 11 11 11 11 11 11 12 12 12 11 10 10 11
2 0 1 2 3 3 3 4 5 8 12 14 17 18 18 21 22 22 23 23 21 19 9 8 8 10 11 11 11 11 11 11 11 11 11 11 11 11 11 11 11 10 10
2 2 2 2 3 3 3 4 4 6 7 6 10 16 20 20 20 21 22 17 11 10 8 9 9 10 11 11 11 11 11 11 11 11 11 11 11 11 11 11 10 11 10
1 2 2 2 3 3 4 4 5 6 6 7 6 8 16 18 18 18 17 9 9 10 10 10 10 10 11 11 11 11 11 12 12 12 11 11 10 10 10 10 10 14 11
1 5 5 3 3 4 4 4 4 5 6 7 7 8 9 10 8 10 10 9 9 10 11 11 11 11 11 11 11 11 11 12 12 11 11 11 10 10 11 11 9 8 7
1 3 7 4 3 4 4 4 4 5 6 7 6 10 17 9 9 10 10 9 10 10 11 11 11 11 10 10 10 11 13 12 11 11 11 10 11 10 9 8 7 7 6
1 2 3 3 3 4 4 4 5 5 6 8 7 9 16 8 8 9 9 10 10 10 10 11 11 10 10 10 11 12 12 13 12 12 11 11 10 10 8 6 6 5 5
2 3 3 3 3 7 6 4 5 6 7 7 8 9 9 8 9 9 10 10 11 11 10 11 11 11 11 11 11 11 12 13 13 14 14 12 9 7 6 5 6 5 4
3 3 3 3 3 3 4 5 5 7 7 8 8 9 9 9 10 11 10 9 10 10 11 11 12 15 19 16 12 12 12 14 15 14 13 8 6 6 6 5 5 5 3
3 3 3 3 4 4 5 5 5 5 7 8 9 9 10 10 10 9 9 9 11 12 14 15 12 13 18 23 20 17 21 27 21 9 6 5 6 7 6 6 5 3 2
3 3 3 3 4 4 5 5 5 6 7 8 8 8 9 9 9 9 9 10 11 13 14 13 16 19 22 18 20 25 28 21 16 15 8 5 5 5 6 4 5 3 2
Wind_Direction
115 110 109 107 107 108 111 116 112 84 50 18 349 337 330 325 322 315 306 304 300 298 297 301 298 302 305 304 299 294 290 285 290 298 296 292 284 281 290 278 281 277 279
113 108 106 107 109 112 115 111 94 61 21 351 336 329 326 323 317 309 303 305 297 297 293 294 293 309 308 304 300 296 293 283 283 295 301 300 289 283 289 293 299 293 283
113 109 107 111 117 121 117 96 66 32 353 338 332 329 325 319 312 302 293 293 294 290 284 281 286 302 306 302 297 292 288 293 288 294 297 297 293 298 302 296 292 288 290
116 114 118 127 131 127 112 83 41 4 342 337 336 330 322 315 304 298 300 299 294 286 272 267 275 291 298 298 296 291 300 299 294 292 295 295 295 296 295 301 303 292 287
122 123 130 133 126 118 99 55 17 359 351 346 341 331 326 320 319 325 318 309 304 296 275 263 271 302 308 306 308 311 306 300 301 301 301 303 307 308 303 302 300 299 288
129 131 130 127 122 111 82 40 17 3 353 349 339 326 322 329 333 336 334 320 313 302 284 275 285 298 299 310 312 308 306 307 307 306 310 307 304 302 302 301 302 302 300
126 127 131 130 117 94 63 37 13 354 346 337 326 320 315 318 337 341 340 341 331 318 304 299 305 309 313 300 295 300 306 309 312 311 301 300 303 306 304 302 299 297 296
125 130 133 125 109 81 50 21 350 334 332 317 310 310 311 324 340 342 342 348 325 312 305 301 295 291 293 299 301 306 306 312 306 303 295 298 302 300 297 300 298 295 291
126 128 124 118 104 69 23 351 332 321 315 303 302 310 315 320 333 336 338 319 313 309 304 302 306 300 303 315 320 318 319 308 312 314 314 311 310 310 308 305 301 300 298
126 124 118 112 100 53 0 334 317 307 297 303 311 312 310 306 321 331 329 305 303 302 297 295 307 312 317 326 329 326 317 311 315 318 315 310 306 301 305 304 301 297 296
122 116 106 88 58 34 5 327 312 311 314 317 312 310 306 311 324 328 325 321 306 307 310 309 307 320 328 331 332 322 310 320 324 316 310 306 304 303 302 297 294 292 293
114 104 84 57 33 27 1 329 322 324 321 318 315 313 302 306 323 324 327 327 326 318 315 313 318 329 331 332 329 319 324 329 319 311 309 310 310 306 303 299 295 290 283
102 85 63 44 33 18 350 331 326 325 322 319 316 317 319 312 314 326 330 333 333 331 319 326 331 332 333 330 321 325 329 321 313 312 312 310 304 298 301 302 299 293 288
96 78 60 46 11 349 339 325 321 320 320 318 324 325 321 316 307 308 315 322 329 327 323 329 333 331 329 325 325 324 319 313 317 313 311 308 307 305 307 308 308 309 305
94 79 55 15 336 328 329 322 328 311 325 334 324 316 324 322 327 337 338 332 337 328 335 327 321 323 322 323 322 320 320 320 319 313 311 311 312 312 311 312 308 308 308
101 81 5 325 320 322 321 323 340 342 338 341 340 337 327 329 333 337 339 341 341 339 340 326 324 322 321 323 322 320 319 318 316 313 310 309 310 311 312 312 311 313 315
119 67 326 327 321 320 322 322 321 328 334 338 338 336 335 335 336 339 341 342 340 339 335 323 322 322 320 318 316 315 315 313 311 309 308 309 309 309 310 312 315 318 319
82 5 349 321 319 317 312 307 305 312 319 317 326 332 336 336 338 342 342 342 333 335 328 326 322 319 317 315 315 314 313 313 312 310 308 308 308 308 310 311 314 319 321
49 342 328 322 318 311 306 303 303 308 314 316 314 324 336 335 339 340 343 336 327 330 328 324 318 315 314 313 312 311 310 310 308 308 307 307 308 308 308 308 311 319 326
23 355 357 343 327 318 307 304 310 316 319 319 321 325 324 332 337 335 335 329 329 326 323 319 315 312 312 311 310 310 310 309 308 306 305 305 306 307 306 306 311 317 321
5 342 350 343 317 305 301 307 316 320 317 317 318 324 336 341 332 326 327 328 328 324 320 316 313 311 311 310 309 309 307 305 303 301 300 302 304 305 303 304 311 312 317
341 328 322 314 307 305 316 322 319 315 314 317 321 324 333 334 323 322 324 326 323 319 315 312 309 307 308 309 309 308 305 301 299 298 298 298 298 297 300 309 314 317 322
339 328 321 315 307 326 334 317 316 318 318 319 323 327 327 325 323 322 323 323 319 315 314 311 308 307 309 308 305 300 296 293 291 291 292 291 293 300 310 311 312 318 326
336 326 318 313 308 311 314 316 316 321 323 324 325 322 319 319 320 320 321 316 315 313 311 310 307 307 310 312 309 303 293 290 289 287 289 302 318 319 315 312 311 317 325
340 330 322 315 314 316 316 309 304 306 317 324 321 317 315 316 316 317 315 314 313 312 311 311 310 313 314 313 310 306 303 307 316 327 331 327 323 322 320 318 321 331 356
341 331 321 315 312 310 309 307 308 314 317 315 310 308 311 313 315 315 313 313 315 314 312 312 312 315 314 312 310 312 316 329 351 355 347 324 324 325 327 325 335 351 28